[[{"header":{"parameterUnit":"m.s-1","parameterCategory":1,"la1":30.2991,"la2":30.254,"lo1":-89.0895,"lo2":-89.0444,"dy":0.0017,"dx":0.0017,"nx":28,"ny":28,"refTime":"2025-07-20T03:00:00:Z","depth":0,"parameterNumber":2,"parameterNumberName":"U-component_of_WINDS"},"data":[0,0,0,0,0,0,0,0,0,0,0,0,0,0,0,0,0,0,0,0,0,0,0,0,0,0,0,0,0,0,0,0,0,0,0,0,0,0,0,0,0,0,0,0,0,0,0,0,0,0,0,0,0,0,0,0,0,0,2.9377,2.9378,0,2.9523,2.9525,2.9526,2.952,2.9518,2.9516,2.9514,2.9666,2.9672,2.9678,0,0,0,0,0,0,0,0,0,0,0,0,0,2.9093,2.9098,2.9376,2.9378,2.938,2.9523,2.9525,2.9527,2.952,2.9518,2.9515,2.9513,2.9664,2.9671,2.9678,0,0,0,0,0,0,0,0,0,0,0,0,0,2.9225,2.91,2.9376,2.9394,2.9397,2.9522,2.9525,2.9527,2.9521,2.9518,2.9514,2.9511,2.9662,2.967,2.9679,2.9797,0,0,2.9707,2.9711,0,0,0,0,0,0,0,0,2.9218,2.9236,2.9389,2.9393,2.9397,2.95,2.9481,2.9618,2.9521,2.9474,2.9514,2.951,2.9613,2.9626,2.9661,2.9805,2.9811,2.9708,2.9713,2.9717,2.9719,0,0,0,0,0,0,0,2.9209,2.9229,2.9434,2.9392,2.9396,2.9395,2.9411,2.9507,2.9559,2.9478,2.9478,2.9495,2.9615,2.9652,2.9664,2.9813,2.9707,2.9715,2.9721,2.9724,3.0061,3.0064,0,0,0,0,0,0,2.9195,2.9222,2.943,2.9439,2.9298,2.9403,2.942,2.947,2.9558,2.9569,2.9497,2.9494,2.9638,2.9654,2.9669,2.9813,2.9717,2.9725,2.973,3.0057,3.0062,3.0066,0,0,0,0,0,0,2.9189,2.9214,2.9424,2.933,2.9357,2.9411,2.9467,2.9474,2.9512,2.9573,2.9583,2.9526,2.9636,2.9657,2.9765,2.9818,2.9729,2.9738,3.0053,3.0059,3.0064,3.0101,0,0,0,0,0,0,2.9181,2.9212,2.9257,2.9331,2.9362,2.9517,2.947,2.948,2.9527,2.9524,2.9602,2.9612,2.9635,2.9752,2.9774,2.9829,2.9745,3.0049,3.0056,3.0062,3.0095,3.0107,3.0117,0,0,0,0,0,2.9171,2.9262,2.9259,2.9284,2.9419,2.952,2.9537,2.9562,2.9531,2.9577,2.9616,2.961,2.9809,2.9763,2.9788,2.9846,3.0046,3.0054,3.0061,3.009,3.0105,3.0117,0,0,0,0,0,0,2.9193,2.9272,2.927,2.9387,2.9447,2.9518,2.9577,2.9576,2.9646,2.964,2.9668,2.9686,2.9795,2.9832,2.9779,2.9965,2.9923,2.9937,2.9937,2.9951,2.9961,2.995,2.9752,0,0,0,0,0,2.9211,2.9286,2.9351,2.9449,2.9479,2.9523,2.9568,2.9581,2.9644,2.9669,2.9717,2.9779,2.9855,2.9905,2.9979,3.0101,3.0118,3.0153,3.0164,3.0172,3.0184,3.025,3.0266,3.0092,3.0092,3.0092,0,0,2.925,2.9303,2.9348,2.9455,2.9502,2.9579,2.9544,2.9627,2.9684,2.9682,2.9787,2.9824,2.9895,3.0011,3.0064,3.0045,3.0236,3.0183,3.0189,3.0196,3.026,3.0276,3.0291,3.0097,3.0096,3.0095,0,0,2.9361,2.9408,2.9494,2.9542,2.9614,2.9643,2.9664,2.9736,2.976,2.9866,2.9865,2.9935,3.0066,3.0116,3.0159,3.0288,3.0285,3.0312,3.0368,3.0433,3.0446,3.0459,3.0504,3.052,3.0323,3.0323,3.0323,0,2.94,2.9515,2.9539,2.9622,2.9669,2.9669,2.9757,2.9803,2.9896,2.9929,2.9906,3.007,3.0118,3.0245,3.0276,3.0311,3.0336,3.0303,3.0442,3.0455,3.0467,3.051,3.0527,3.0326,3.0325,3.0325,3.0325,0,2.956,2.964,2.9701,2.9789,2.9843,2.9928,2.9965,3.0017,3.0026,3.0057,3.0164,3.0222,3.0307,3.0339,3.0349,3.0467,3.0453,3.0436,3.0395,3.0486,3.0527,3.0544,3.033,3.0329,3.0328,3.0327,0,0,2.9688,2.9788,2.981,2.985,2.993,2.9992,3.0077,3.016,3.0203,3.0268,3.034,3.0451,3.0435,3.0484,3.05,3.0557,3.0654,3.0533,3.0535,3.0553,3.0788,3.0799,3.0818,3.0653,3.0656,3.0659,3.0782,0,2.9806,2.9956,2.9979,3.0111,3.0185,3.0187,3.0261,3.0319,3.035,3.0418,3.0453,3.0531,3.0505,3.0535,3.0591,3.063,3.0702,3.0622,3.072,3.0723,3.0701,3.084,3.0853,3.0966,3.0798,3.0801,3.0803,0,2.9963,3.003,3.0169,3.0238,3.027,3.0336,3.0414,3.0478,3.0544,3.0562,3.0617,3.0625,3.0714,3.067,3.0792,3.0738,3.0779,3.0805,3.081,3.0819,3.0768,3.0852,3.1003,3.1019,3.0829,3.0827,3.0825,0,3.0041,3.0167,3.0266,3.03,3.0384,3.043,3.0467,3.0529,3.0577,3.0645,3.0676,3.0754,3.0796,3.0857,3.0886,3.0851,3.1007,3.0965,3.1025,3.1025,3.1058,3.1055,3.1216,3.1086,3.1086,3.1085,3.1085,0,3.017,3.0255,3.0302,3.0363,3.0458,3.0485,3.0579,3.0615,3.067,3.0738,3.0745,3.0809,3.0845,3.0915,3.0939,3.1037,3.1056,3.1074,3.1079,3.1073,3.107,3.11,3.1092,3.109,3.1089,3.1088,3.1087,0,3.0273,3.0308,3.0416,3.0486,3.0506,3.0573,3.0632,3.0692,3.0723,3.081,3.0831,3.0881,3.0963,3.0999,3.1101,3.1117,3.1228,3.1228,3.1206,3.1207,3.1265,3.1259,3.145,3.1476,3.133,3.1331,3.1332,0,3.0352,3.0417,3.0494,3.0539,3.0577,3.0651,3.07,3.0729,3.0779,3.0858,3.0908,3.099,3.1057,3.1189,3.1234,3.1312,3.1313,3.1375,3.1325,3.1316,3.1313,3.1309,3.1315,3.1384,3.1385,3.1386,3.1387,0,3.0489,3.0503,3.0572,3.0648,3.0705,3.0766,3.0826,3.0864,3.0902,3.0958,3.1042,3.1094,3.1197,3.1279,3.1359,3.1398,3.1399,3.1403,3.1421,3.1414,3.1398,3.1407,3.1229,3.1398,3.1397,3.1396,3.1396,3.1395,3.0582,3.064,3.0702,3.0779,3.0827,3.0882,3.0941,3.098,3.1049,3.1135,3.1148,3.1237,3.1301,3.1409,3.1451,3.1521,3.1506,3.1532,3.1539,3.1544,3.1547,3.1388,3.1536,3.1536,3.1536,3.1535,3.1535,0,3.0718,3.0758,3.0829,3.0912,3.0972,3.0967,3.1033,3.1084,3.1162,3.1221,3.1286,3.1382,3.1461,3.1513,3.1592,3.1639,3.1642,3.1659,3.1655,3.1664,3.1557,3.1533,3.1655,3.1655,3.1655,3.1655,3.1655,3.1655,3.0796,3.0893,3.0914,3.1035,3.1075,3.1161,3.1199,3.1251,3.1297,3.1404,3.1469,3.1502,3.1558,3.1641,3.1714,3.1727,3.1756,3.1774,3.1786,3.1684,3.1672,3.166,3.1637,3.178,3.178,3.1887,3.1888,3.1889]},{"header":{"parameterUnit":"m.s-1","parameterCategory":1,"la1":30.2991,"la2":30.254,"lo1":-89.0895,"lo2":-89.0444,"dy":0.0017,"dx":0.0017,"nx":28,"ny":28,"refTime":"2025-07-20T03:00:00:Z","depth":0,"parameterNumber":3,"parameterNumberName":"V-component_of_WINDS"},"data":[0,0,0,0,0,0,0,0,0,0,0,0,0,0,0,0,0,0,0,0,0,0,0,0,0,0,0,0,0,0,0,0,0,0,0,0,0,0,0,0,0,0,0,0,0,0,0,0,0,0,0,0,0,0,0,0,0,0,-0.6416,-0.6416,0,-0.6464,-0.6465,-0.6466,-0.649,-0.649,-0.649,-0.649,-0.654,-0.6541,-0.6542,0,0,0,0,0,0,0,0,0,0,0,0,0,-0.6344,-0.6345,-0.6416,-0.6416,-0.6417,-0.6464,-0.6465,-0.6466,-0.649,-0.649,-0.649,-0.649,-0.6539,-0.6541,-0.6542,0,0,0,0,0,0,0,0,0,0,0,0,0,-0.6382,-0.6346,-0.6416,-0.6435,-0.6437,-0.6464,-0.6465,-0.6466,-0.649,-0.649,-0.649,-0.649,-0.6539,-0.6541,-0.6543,-0.6554,0,0,-0.6549,-0.6549,0,0,0,0,0,0,0,0,-0.638,-0.6385,-0.6432,-0.6434,-0.6436,-0.6471,-0.6458,-0.6495,-0.649,-0.647,-0.649,-0.649,-0.6517,-0.6521,-0.653,-0.6556,-0.6558,-0.6549,-0.655,-0.6551,-0.6551,0,0,0,0,0,0,0,-0.6377,-0.6383,-0.6435,-0.6432,-0.6435,-0.6441,-0.6447,-0.6465,-0.6493,-0.6472,-0.6474,-0.6479,-0.6518,-0.6528,-0.6531,-0.6559,-0.6549,-0.655,-0.6552,-0.6552,-0.6598,-0.6598,0,0,0,0,0,0,-0.6372,-0.6381,-0.6434,-0.6436,-0.6408,-0.6442,-0.6449,-0.646,-0.6493,-0.6498,-0.6479,-0.648,-0.6524,-0.6529,-0.6533,-0.6549,-0.6551,-0.6553,-0.6554,-0.6598,-0.6598,-0.6598,0,0,0,0,0,0,-0.637,-0.6376,-0.6432,-0.6409,-0.6417,-0.6444,-0.6456,-0.6461,-0.6471,-0.6498,-0.6503,-0.6484,-0.6525,-0.653,-0.6549,-0.6551,-0.6553,-0.6555,-0.6598,-0.6598,-0.6598,-0.658,0,0,0,0,0,0,-0.6368,-0.6375,-0.638,-0.6409,-0.6418,-0.6446,-0.6456,-0.6462,-0.6474,-0.6476,-0.6504,-0.6509,-0.6525,-0.6546,-0.6551,-0.6553,-0.6557,-0.6598,-0.6598,-0.6598,-0.658,-0.6579,-0.6578,0,0,0,0,0,-0.6365,-0.6373,-0.638,-0.6386,-0.6424,-0.6447,-0.6451,-0.647,-0.6474,-0.6479,-0.6497,-0.6508,-0.655,-0.6547,-0.6553,-0.6556,-0.6598,-0.6598,-0.6598,-0.6581,-0.6579,-0.6578,0,0,0,0,0,0,-0.6343,-0.6377,-0.6385,-0.6403,-0.6422,-0.6451,-0.6457,-0.6468,-0.6487,-0.6488,-0.651,-0.6516,-0.6533,-0.6547,-0.6543,-0.6569,-0.6575,-0.6576,-0.656,-0.6559,-0.6558,-0.6554,-0.6558,0,0,0,0,0,-0.6341,-0.6356,-0.6385,-0.6397,-0.6406,-0.643,-0.6441,-0.6454,-0.6474,-0.6482,-0.6501,-0.652,-0.6538,-0.6549,-0.6567,-0.6582,-0.6589,-0.6587,-0.6586,-0.6585,-0.6586,-0.6596,-0.6595,-0.6598,-0.6598,-0.6598,0,0,-0.6335,-0.6355,-0.6364,-0.6393,-0.6409,-0.6425,-0.6437,-0.6452,-0.6464,-0.6484,-0.6503,-0.6518,-0.6541,-0.6558,-0.6566,-0.657,-0.6587,-0.6586,-0.6585,-0.6586,-0.6596,-0.6595,-0.6595,-0.6598,-0.6598,-0.6598,0,0,-0.6333,-0.635,-0.6362,-0.6378,-0.6402,-0.6418,-0.6421,-0.6448,-0.6459,-0.6478,-0.6494,-0.6508,-0.6538,-0.6553,-0.6565,-0.6569,-0.658,-0.6574,-0.6569,-0.6578,-0.6577,-0.6577,-0.6579,-0.6579,-0.6575,-0.6575,-0.6575,0,-0.6323,-0.6347,-0.6367,-0.6382,-0.6394,-0.6414,-0.6426,-0.6441,-0.6469,-0.6478,-0.6481,-0.6519,-0.6536,-0.6557,-0.6558,-0.6567,-0.6571,-0.6571,-0.6576,-0.6576,-0.6576,-0.6578,-0.6578,-0.6574,-0.6574,-0.6574,-0.6574,0,-0.6333,-0.635,-0.6357,-0.6384,-0.6397,-0.6411,-0.6433,-0.6444,-0.6456,-0.6472,-0.6491,-0.6512,-0.6534,-0.654,-0.6552,-0.6563,-0.6564,-0.6571,-0.6577,-0.6575,-0.6577,-0.6577,-0.6573,-0.6573,-0.6573,-0.6573,0,0,-0.6318,-0.6357,-0.6359,-0.6372,-0.64,-0.6413,-0.6428,-0.645,-0.6459,-0.6478,-0.6491,-0.6516,-0.6522,-0.6536,-0.655,-0.6557,-0.6559,-0.6564,-0.6565,-0.6562,-0.6573,-0.6567,-0.6568,-0.6566,-0.6567,-0.6567,-0.6571,0,-0.632,-0.6347,-0.6366,-0.6386,-0.6401,-0.642,-0.6432,-0.6451,-0.6466,-0.6481,-0.6498,-0.6515,-0.6522,-0.6531,-0.6539,-0.6557,-0.6562,-0.6557,-0.6579,-0.6579,-0.6572,-0.6569,-0.6563,-0.6566,-0.6572,-0.6572,-0.6572,0,-0.6326,-0.6344,-0.6366,-0.6393,-0.64,-0.6411,-0.6432,-0.6447,-0.6468,-0.6479,-0.6494,-0.6508,-0.6524,-0.6528,-0.6551,-0.6548,-0.6558,-0.6568,-0.6568,-0.6571,-0.6575,-0.6571,-0.6567,-0.6567,-0.6573,-0.6573,-0.6573,0,-0.6313,-0.6343,-0.636,-0.6371,-0.6402,-0.6409,-0.6423,-0.6445,-0.6457,-0.6475,-0.6483,-0.6504,-0.6515,-0.6531,-0.655,-0.6551,-0.6571,-0.6577,-0.658,-0.6579,-0.6583,-0.6582,-0.658,-0.6589,-0.6589,-0.6589,-0.6589,0,-0.6313,-0.6325,-0.6355,-0.6365,-0.638,-0.6401,-0.6415,-0.643,-0.6449,-0.6462,-0.6479,-0.6492,-0.6516,-0.6532,-0.6547,-0.6563,-0.6568,-0.6577,-0.6581,-0.6576,-0.6575,-0.6583,-0.6583,-0.6589,-0.6589,-0.6589,-0.6589,0,-0.6301,-0.6321,-0.6341,-0.6369,-0.6376,-0.6386,-0.641,-0.6421,-0.6437,-0.6454,-0.6459,-0.6484,-0.6503,-0.6523,-0.6549,-0.6559,-0.6575,-0.6581,-0.6568,-0.657,-0.6572,-0.6572,-0.6575,-0.6576,-0.6584,-0.6584,-0.6584,0,-0.6299,-0.6309,-0.6339,-0.6349,-0.6362,-0.6379,-0.6391,-0.6412,-0.6425,-0.645,-0.6458,-0.6478,-0.6495,-0.6525,-0.6545,-0.6565,-0.6571,-0.6571,-0.6575,-0.6569,-0.6572,-0.6571,-0.6572,-0.657,-0.657,-0.657,-0.657,0,-0.6295,-0.6304,-0.6322,-0.6342,-0.6357,-0.6374,-0.6392,-0.64,-0.6425,-0.6437,-0.6457,-0.6471,-0.6497,-0.6517,-0.654,-0.6554,-0.6566,-0.6568,-0.657,-0.6565,-0.6557,-0.6561,-0.6565,-0.6568,-0.6568,-0.6569,-0.6569,-0.6569,-0.6288,-0.6298,-0.632,-0.6339,-0.6355,-0.6371,-0.6383,-0.64,-0.6417,-0.644,-0.6452,-0.6471,-0.6493,-0.6524,-0.6538,-0.6554,-0.6558,-0.656,-0.6561,-0.6561,-0.656,-0.6555,-0.6558,-0.6558,-0.6558,-0.6558,-0.6558,0,-0.6285,-0.63,-0.6317,-0.6341,-0.6356,-0.6366,-0.6387,-0.6398,-0.6415,-0.6435,-0.6451,-0.6474,-0.6494,-0.6516,-0.6537,-0.6545,-0.6551,-0.655,-0.6549,-0.6552,-0.6555,-0.6551,-0.6544,-0.6544,-0.6544,-0.6544,-0.6544,-0.6544,-0.6284,-0.6301,-0.6314,-0.6339,-0.6354,-0.6373,-0.6384,-0.6399,-0.6415,-0.6439,-0.6456,-0.647,-0.649,-0.6513,-0.6531,-0.6538,-0.6544,-0.6541,-0.6549,-0.6551,-0.6552,-0.6553,-0.655,-0.6543,-0.6543,-0.6545,-0.6545,-0.6545]}]]